Tracking 27420 objects as of 11-Jun-2023
HD Live streaming from Space Station
objects crossing your sky now

STARLINK-6335

Track STARLINK-6335 now!
10-day predictions
STARLINK-6335 is classified as:


NORAD ID: 56527
Int'l Code: 2023-065AA
Perigee: 361.3 km
Apogee: 363.0 km
Inclination: 43.0 °
Period: 91.6 minutes
Semi major axis: 6733 km
RCS: Unknown
Launch date: May 14, 2023
Source: United States (US)
Launch site: AIR FORCE EASTERN TEST RANGE (AFETR)
Your satellite tracking list
Your tracking list is empty




NASA's NSSDC Master Catalog

Two Line Element Set (TLE):
1 56527U 23065AA  23161.60368862  .00001235  00000-0  12856-4 0  9990
2 56527  42.9998 279.0139 0001282 265.1133  94.9589 15.71358228  4733
Source of the keplerian elements: AFSPC